Time,TemperatureF,DewpointF,PressureIn,WindDirection,WindDirectionDegrees,WindSpeedMPH,WindSpeedGustMPH,Humidity,HourlyPrecipIn,Conditions,Clouds,dailyrainin,SolarRadiationWatts/m^2,SoftwareType,DateUTC
2013-05-03 00:00:00,59.4,53.0,30.09,NNW,338,4.0,7.0,80,0.00,,,0.00,0,weatherlink.com 1.10,2013-05-03 04:00:00,
2013-05-03 00:15:00,59.4,53.0,30.08,NNW,339,5.0,6.0,80,0.00,,,0.00,0,weatherlink.com 1.10,2013-05-03 04:15:00,
2013-05-03 00:30:00,59.3,53.0,30.08,NNW,338,5.0,7.0,80,0.00,,,0.00,0,weatherlink.com 1.10,2013-05-03 04:30:00,
2013-05-03 00:45:00,59.1,53.0,30.07,NNW,333,7.0,9.0,81,0.00,,,0.00,0,weatherlink.com 1.10,2013-05-03 04:45:00,
2013-05-03 01:01:00,59.0,54.0,30.07,NNW,334,3.0,6.0,82,0.00,,,0.00,0,weatherlink.com 1.10,2013-05-03 05:01:00,
2013-05-03 01:16:00,59.0,54.0,30.06,NNW,336,3.0,7.0,82,0.00,,,0.00,0,weatherlink.com 1.10,2013-05-03 05:16:00,
2013-05-03 01:31:00,59.1,54.0,30.05,NNW,329,4.0,6.0,82,0.00,,,0.00,0,weatherlink.com 1.10,2013-05-03 05:31:00,
2013-05-03 01:46:00,59.1,54.0,30.05,NNW,342,5.0,8.0,82,0.00,,,0.00,0,weatherlink.com 1.10,2013-05-03 05:46:00,
2013-05-03 02:01:00,59.2,54.0,30.04,NNW,337,5.0,7.0,82,0.00,,,0.00,0,weatherlink.com 1.10,2013-05-03 06:01:00,
2013-05-03 02:16:00,59.1,54.0,30.04,NNW,338,3.0,7.0,83,0.00,,,0.00,0,weatherlink.com 1.10,2013-05-03 06:16:00,
2013-05-03 02:31:00,58.7,54.0,30.04,NNW,339,4.0,8.0,84,0.00,,,0.00,0,weatherlink.com 1.10,2013-05-03 06:31:00,
2013-05-03 02:46:00,58.4,54.0,30.03,NNW,338,5.0,8.0,84,0.00,,,0.00,0,weatherlink.com 1.10,2013-05-03 06:46:00,
2013-05-03 03:01:00,58.1,54.0,30.03,NNW,338,4.0,6.0,86,0.00,,,0.00,0,weatherlink.com 1.10,2013-05-03 07:01:00,
2013-05-03 03:16:00,58.0,54.0,30.03,NNW,338,4.0,7.0,86,0.00,,,0.00,0,weatherlink.com 1.10,2013-05-03 07:16:00,
2013-05-03 03:31:00,57.9,54.0,30.02,NNW,341,5.0,7.0,86,0.00,,,0.00,0,weatherlink.com 1.10,2013-05-03 07:31:00,
2013-05-03 03:46:00,58.0,54.0,30.02,NNW,344,4.0,7.0,86,0.00,,,0.00,0,weatherlink.com 1.10,2013-05-03 07:46:00,
2013-05-03 04:01:00,58.0,54.0,30.02,NNW,340,4.0,8.0,86,0.00,,,0.00,0,weatherlink.com 1.10,2013-05-03 08:01:00,
2013-05-03 04:16:00,57.7,54.0,30.02,NNW,337,6.0,7.0,87,0.00,,,0.00,0,weatherlink.com 1.10,2013-05-03 08:16:00,
2013-05-03 04:31:00,57.5,54.0,30.02,NNW,336,5.0,9.0,87,0.00,,,0.00,0,weatherlink.com 1.10,2013-05-03 08:31:00,
2013-05-03 04:46:00,57.5,54.0,30.01,NNW,334,4.0,9.0,87,0.00,,,0.00,0,weatherlink.com 1.10,2013-05-03 08:46:00,
2013-05-03 05:01:00,57.5,53.0,30.01,NNW,333,5.0,7.0,86,0.00,,,0.00,0,weatherlink.com 1.10,2013-05-03 09:01:00,
2013-05-03 05:16:00,57.4,53.0,30.01,NNW,338,3.0,7.0,85,0.00,,,0.00,0,weatherlink.com 1.10,2013-05-03 09:16:00,
2013-05-03 05:31:00,57.4,53.0,30.01,NNW,335,3.0,6.0,85,0.00,,,0.00,0,weatherlink.com 1.10,2013-05-03 09:31:00,
2013-05-03 05:46:00,57.4,53.0,30.01,NNW,340,3.0,6.0,85,0.00,,,0.00,0,weatherlink.com 1.10,2013-05-03 09:46:00,
2013-05-03 06:01:00,57.3,53.0,30.01,NNW,340,3.0,5.0,86,0.00,,,0.00,0,weatherlink.com 1.10,2013-05-03 10:01:00,
2013-05-03 06:16:00,57.2,53.0,30.00,NNW,340,2.0,7.0,86,0.00,,,0.00,0,weatherlink.com 1.10,2013-05-03 10:16:00,
2013-05-03 06:31:00,57.1,53.0,30.00,NNW,340,3.0,6.0,86,0.00,,,0.00,0,weatherlink.com 1.10,2013-05-03 10:31:00,
2013-05-03 06:46:00,56.9,53.0,30.01,NNW,340,2.0,6.0,86,0.00,,,0.00,0,weatherlink.com 1.10,2013-05-03 10:46:00,
2013-05-03 07:01:00,56.9,53.0,30.02,NNW,340,2.0,6.0,86,0.00,,,0.00,5,weatherlink.com 1.10,2013-05-03 11:01:00,
2013-05-03 07:16:00,56.6,53.0,30.02,NNW,339,2.0,6.0,86,0.00,,,0.00,11,weatherlink.com 1.10,2013-05-03 11:16:00,
2013-05-03 07:31:00,56.5,52.0,30.02,NNW,333,4.0,5.0,86,0.00,,,0.00,21,weatherlink.com 1.10,2013-05-03 11:31:00,
2013-05-03 07:46:00,56.7,53.0,30.02,NNW,338,3.0,6.0,86,0.00,,,0.00,37,weatherlink.com 1.10,2013-05-03 11:46:00,
2013-05-03 08:01:00,57.1,53.0,30.02,NNW,339,4.0,6.0,86,0.00,,,0.00,51,weatherlink.com 1.10,2013-05-03 12:01:00,
2013-05-03 08:16:00,57.4,53.0,30.02,NNW,340,5.0,8.0,85,0.00,,,0.00,54,weatherlink.com 1.10,2013-05-03 12:16:00,
2013-05-03 08:31:00,57.7,53.0,30.02,NW,315,3.0,6.0,85,0.00,,,0.00,42,weatherlink.com 1.10,2013-05-03 12:31:00,
2013-05-03 08:46:00,57.8,53.0,30.02,NNW,344,3.0,6.0,85,0.00,,,0.00,46,weatherlink.com 1.10,2013-05-03 12:46:00,
2013-05-03 09:01:00,58.1,54.0,30.02,NNW,340,2.0,7.0,85,0.00,,,0.00,33,weatherlink.com 1.10,2013-05-03 13:01:00,
2013-05-03 09:16:00,58.0,53.0,30.02,NNW,339,4.0,7.0,84,0.00,,,0.00,91,weatherlink.com 1.10,2013-05-03 13:16:00,
2013-05-03 09:32:00,58.9,54.0,30.02,NNW,334,5.0,7.0,83,0.00,,,0.00,167,weatherlink.com 1.10,2013-05-03 13:32:00,
2013-05-03 09:46:00,59.8,54.0,30.02,NNW,334,6.0,8.0,81,0.00,,,0.00,58,weatherlink.com 1.10,2013-05-03 13:46:00,
2013-05-03 10:01:00,59.8,54.0,30.01,NNW,345,3.0,11.0,80,0.00,,,0.00,62,weatherlink.com 1.10,2013-05-03 14:01:00,
2013-05-03 10:16:00,60.4,54.0,30.01,NNW,340,8.0,13.0,78,0.00,,,0.00,60,weatherlink.com 1.10,2013-05-03 14:16:00,
2013-05-03 10:31:00,59.5,53.0,30.01,NNW,341,7.0,10.0,78,0.00,,,0.00,116,weatherlink.com 1.10,2013-05-03 14:31:00,
2013-05-03 10:46:00,59.7,53.0,30.01,NNW,339,7.0,11.0,78,0.00,,,0.00,171,weatherlink.com 1.10,2013-05-03 14:46:00,
2013-05-03 11:02:00,59.9,53.0,30.01,NNW,333,5.0,11.0,78,0.00,,,0.00,178,weatherlink.com 1.10,2013-05-03 15:02:00,
2013-05-03 11:17:00,60.4,53.0,30.02,NNW,340,6.0,10.0,77,0.00,,,0.00,264,weatherlink.com 1.10,2013-05-03 15:17:00,
2013-05-03 11:32:00,60.0,53.0,30.02,NNW,333,5.0,11.0,78,0.00,,,0.00,98,weatherlink.com 1.10,2013-05-03 15:32:00,
2013-05-03 11:47:00,61.1,53.0,30.01,NNW,344,7.0,11.0,75,0.00,,,0.00,102,weatherlink.com 1.10,2013-05-03 15:47:00,
2013-05-03 12:02:00,61.6,53.0,30.01,NW,310,4.0,9.0,73,0.00,,,0.00,190,weatherlink.com 1.10,2013-05-03 16:02:00,
2013-05-03 12:17:00,64.0,53.0,30.00,NNW,334,7.0,11.0,68,0.00,,,0.00,721,weatherlink.com 1.10,2013-05-03 16:17:00,
2013-05-03 12:32:00,63.1,52.0,30.00,NNW,340,6.0,9.0,68,0.00,,,0.00,343,weatherlink.com 1.10,2013-05-03 16:32:00,
2013-05-03 12:47:00,64.1,53.0,29.99,NW,325,4.0,10.0,67,0.00,,,0.00,807,weatherlink.com 1.10,2013-05-03 16:47:00,
2013-05-03 13:02:00,62.5,51.0,29.99,NNW,337,7.0,9.0,67,0.00,,,0.00,236,weatherlink.com 1.10,2013-05-03 17:02:00,
2013-05-03 13:17:00,61.4,52.0,29.99,NNW,334,6.0,9.0,70,0.00,,,0.00,169,weatherlink.com 1.10,2013-05-03 17:17:00,
2013-05-03 13:32:00,60.3,52.0,29.98,NNW,340,3.0,7.0,73,0.00,,,0.00,146,weatherlink.com 1.10,2013-05-03 17:32:00,
2013-05-03 13:47:00,59.5,53.0,29.99,NNW,340,1.0,5.0,79,0.00,,,0.00,151,weatherlink.com 1.10,2013-05-03 17:47:00,
2013-05-03 14:02:00,59.0,53.0,29.99,NNW,334,2.0,6.0,79,0.00,,,0.00,146,weatherlink.com 1.10,2013-05-03 18:02:00,
2013-05-03 14:17:00,59.0,53.0,29.99,NNW,344,6.0,11.0,79,0.00,,,0.00,155,weatherlink.com 1.10,2013-05-03 18:17:00,
2013-05-03 14:32:00,59.3,53.0,29.98,NNW,340,6.0,11.0,79,0.00,,,0.00,214,weatherlink.com 1.10,2013-05-03 18:32:00,
2013-05-03 14:47:00,59.9,53.0,29.98,NNW,344,4.0,8.0,78,0.00,,,0.00,279,weatherlink.com 1.10,2013-05-03 18:47:00,
2013-05-03 15:02:00,60.4,53.0,29.98,NNW,341,5.0,8.0,76,0.00,,,0.00,236,weatherlink.com 1.10,2013-05-03 19:02:00,
2013-05-03 15:17:00,60.7,53.0,29.98,NNW,335,5.0,10.0,77,0.00,,,0.00,257,weatherlink.com 1.10,2013-05-03 19:17:00,
2013-05-03 15:32:00,60.9,54.0,29.98,NNW,339,8.0,9.0,77,0.00,,,0.00,214,weatherlink.com 1.10,2013-05-03 19:32:00,
2013-05-03 15:47:00,60.3,53.0,29.97,NW,321,9.0,10.0,77,0.00,,,0.00,132,weatherlink.com 1.10,2013-05-03 19:47:00,
2013-05-03 16:02:00,59.8,53.0,29.97,NNW,327,6.0,8.0,79,0.00,,,0.00,137,weatherlink.com 1.10,2013-05-03 20:02:00,
2013-05-03 16:17:00,58.8,53.0,29.97,NNW,336,3.0,7.0,81,0.00,,,0.00,98,weatherlink.com 1.10,2013-05-03 20:17:00,
2013-05-03 16:32:00,58.9,53.0,29.96,NNW,340,6.0,8.0,81,0.00,,,0.00,162,weatherlink.com 1.10,2013-05-03 20:32:00,
2013-05-03 16:47:00,59.2,53.0,29.96,NNW,339,4.0,10.0,80,0.00,,,0.00,132,weatherlink.com 1.10,2013-05-03 20:47:00,
2013-05-03 17:02:00,59.0,53.0,29.96,NNW,335,4.0,12.0,80,0.00,,,0.00,77,weatherlink.com 1.10,2013-05-03 21:02:00,
2013-05-03 17:17:00,58.3,52.0,29.97,North,5,6.0,8.0,80,0.00,,,0.00,109,weatherlink.com 1.10,2013-05-03 21:17:00,
2013-05-03 17:32:00,58.6,52.0,29.96,NNW,338,7.0,9.0,79,0.00,,,0.00,74,weatherlink.com 1.10,2013-05-03 21:32:00,
2013-05-03 17:47:00,58.4,52.0,29.96,NNW,339,5.0,8.0,79,0.00,,,0.00,63,weatherlink.com 1.10,2013-05-03 21:47:00,
2013-05-03 18:02:00,58.2,52.0,29.95,NNW,340,4.0,8.0,79,0.00,,,0.00,74,weatherlink.com 1.10,2013-05-03 22:02:00,
2013-05-03 18:17:00,58.4,52.0,29.95,NNW,341,7.0,10.0,79,0.00,,,0.00,65,weatherlink.com 1.10,2013-05-03 22:17:00,
2013-05-03 18:32:00,58.7,52.0,29.95,NNW,337,5.0,11.0,78,0.00,,,0.00,62,weatherlink.com 1.10,2013-05-03 22:32:00,
2013-05-03 18:47:00,58.5,52.0,29.94,NNW,342,5.0,8.0,79,0.00,,,0.00,46,weatherlink.com 1.10,2013-05-03 22:47:00,
2013-05-03 19:02:00,58.3,53.0,29.94,NNW,340,4.0,10.0,81,0.00,,,0.00,44,weatherlink.com 1.10,2013-05-03 23:02:00,
2013-05-03 19:17:00,58.1,53.0,29.93,NNW,341,3.0,8.0,82,0.00,,,0.00,39,weatherlink.com 1.10,2013-05-03 23:17:00,
2013-05-03 19:32:00,57.9,52.0,29.93,NNW,339,3.0,8.0,82,0.00,,,0.00,18,weatherlink.com 1.10,2013-05-03 23:32:00,
2013-05-03 19:47:00,57.5,53.0,29.93,NNW,345,6.0,10.0,84,0.00,,,0.00,7,weatherlink.com 1.10,2013-05-03 23:47:00,
2013-05-03 20:02:00,57.2,53.0,29.93,NNW,332,11.0,13.0,85,0.00,,,0.00,11,weatherlink.com 1.10,2013-05-04 00:02:00,
2013-05-03 20:17:00,57.5,52.0,29.93,NNW,343,5.0,12.0,82,0.00,,,0.00,0,weatherlink.com 1.10,2013-05-04 00:17:00,
2013-05-03 20:32:00,57.8,52.0,29.93,NNW,342,5.0,9.0,81,0.00,,,0.00,0,weatherlink.com 1.10,2013-05-04 00:32:00,
2013-05-03 20:47:00,57.7,52.0,29.92,NNW,344,8.0,12.0,81,0.00,,,0.00,0,weatherlink.com 1.10,2013-05-04 00:47:00,
2013-05-03 21:02:00,57.8,52.0,29.93,NNW,340,4.0,10.0,82,0.00,,,0.00,0,weatherlink.com 1.10,2013-05-04 01:02:00,
2013-05-03 21:17:00,57.7,52.0,29.93,NNW,342,6.0,11.0,82,0.00,,,0.00,0,weatherlink.com 1.10,2013-05-04 01:17:00,
2013-05-03 21:32:00,57.1,52.0,29.94,NNW,348,4.0,12.0,84,0.00,,,0.00,0,weatherlink.com 1.10,2013-05-04 01:32:00,
2013-05-03 21:47:00,56.0,52.0,29.94,NNW,331,5.0,14.0,87,0.00,,,0.00,0,weatherlink.com 1.10,2013-05-04 01:47:00,
2013-05-03 22:02:00,56.1,51.0,29.95,NNW,340,8.0,10.0,84,0.00,,,0.00,0,weatherlink.com 1.10,2013-05-04 02:02:00,
2013-05-03 22:17:00,56.7,51.0,29.95,NNW,343,4.0,11.0,81,0.00,,,0.00,0,weatherlink.com 1.10,2013-05-04 02:17:00,
2013-05-03 22:32:00,56.7,51.0,29.94,North,355,5.0,12.0,81,0.00,,,0.00,0,weatherlink.com 1.10,2013-05-04 02:32:00,
2013-05-03 22:47:00,56.7,51.0,29.94,North,5,6.0,12.0,81,0.00,,,0.00,0,weatherlink.com 1.10,2013-05-04 02:47:00,
2013-05-03 23:02:00,56.9,51.0,29.94,NNW,331,4.0,11.0,80,0.00,,,0.00,0,weatherlink.com 1.10,2013-05-04 03:02:00,
2013-05-03 23:17:00,56.9,50.0,29.93,NNW,340,5.0,12.0,78,0.00,,,0.00,0,weatherlink.com 1.10,2013-05-04 03:17:00,
2013-05-03 23:32:00,56.9,50.0,29.93,North,360,4.0,10.0,77,0.00,,,0.00,0,weatherlink.com 1.10,2013-05-04 03:32:00,
2013-05-03 23:47:00,57.0,50.0,29.92,NNW,341,8.0,12.0,76,0.00,,,0.00,0,weatherlink.com 1.10,2013-05-04 03:47:00,